This is the latest recevied weather packets stored in our database for station/object K0SNA. If no packets are shown the sender has not sent any weather packets the latest 10 day(s).
| Time | Temp. | Humidity | Pressure | Rain* | Wind** | Luminosity | Snow |
|---|---|---|---|---|---|---|---|
| 1778012483 | 9.44° C | 40% | 1011.4 hPa | 0 mm | - | 223 W/m² | - |
| 1778012180 | 9.44° C | 40% | 1011.3 hPa | 0 mm | - | 182 W/m² | - |
| 1778011877 | 9.44° C | 40% | 1011.3 hPa | 0 mm | - | 116 W/m² | - |
| 1778011575 | 9.44° C | 41% | 1011.4 hPa | 0 mm | - | 150 W/m² | - |
| 1778011272 | 9.44° C | 41% | 1011.3 hPa | 0 mm | - | 237 W/m² | - |
| 1778010968 | 9.44° C | 40% | 1011.4 hPa | 0 mm | - | 439 W/m² | - |
| 1778010666 | 9.44° C | 40% | 1011.2 hPa | 0 mm | - | 143 W/m² | - |
| 1778010363 | 10.56° C | 39% | 1011.3 hPa | 0 mm | - | 196 W/m² | - |
| 1778010058 | 10° C | 39% | 1011.3 hPa | 0 mm | - | 464 W/m² | - |
| 1778009756 | 10° C | 39% | 1011.4 hPa | 0 mm | - | 383 W/m² | - |
| 1778009453 | 10° C | 39% | 1011.3 hPa | 0 mm | - | 358 W/m² | - |
| 1778009151 | 10° C | 39% | 1011.4 hPa | 0 mm | - | 243 W/m² | - |
| 1778008848 | 10° C | 40% | 1011.4 hPa | 0 mm | - | 295 W/m² | - |
| 1778008547 | 10° C | 40% | 1011.4 hPa | 0 mm | - | 360 W/m² | - |
| 1778008244 | 10° C | 39% | 1011.2 hPa | 0 mm | - | 282 W/m² | - |
| 1778007938 | 10.56° C | 39% | 1011.3 hPa | 0 mm | - | 845 W/m² | - |
| 1778007635 | 10° C | 40% | 1011.5 hPa | 0 mm | - | 594 W/m² | - |
| 1778007332 | 10° C | 40% | 1011.5 hPa | 0 mm | - | 878 W/m² | - |
| 1778007028 | 9.44° C | 40% | 1011.4 hPa | 0 mm | - | 293 W/m² | - |
| 1778006725 | 10° C | 40% | 1011.4 hPa | 0 mm | - | 416 W/m² | - |
| 1778006422 | 10° C | 41% | 1011.4 hPa | 0 mm | - | 343 W/m² | - |
| 1778006119 | 10° C | 40% | 1011.3 hPa | 0 mm | - | 668 W/m² | - |
| 1778005816 | 9.44° C | 41% | 1011.3 hPa | 0 mm | - | 415 W/m² | - |
| 1778005512 | 9.44° C | 40% | 1011.3 hPa | 0 mm | - | 904 W/m² | - |
| 1778005209 | 10° C | 40% | 1011.4 hPa | 0 mm | - | 307 W/m² | - |
* Rain latest hour (hover to see other rain measurements)
** Current wind speed in m/s (hover to see current wind gust speed)